Погода в Терезине

Бразилия     5°05′44″S   42°48′16″W
темп.,
°C
ветер,
м/с
пор.,
м/с
влажн.,
%
обл.,
%
осадки,
мм/ч
давл.,
гПа
погр.,
м
28 июля, ср
ср2800:00+26с2751100 0.0 1013212
03:00+24с137060 0.0 1013138
06:00+22ссв008816 0.0 101334
09:00+30всв11550 0.0 1014833
12:00+34ю1139100 0.0 10132300
15:00+32ссз124695 0.0 1010487
18:00+28сз23540 0.0 101054
21:00+25с266284 0.0 1012134
29 июля, чт
чт2900:00+26с2974100 0.0 1013456
03:00+24с178290 0.0 1012436
06:00+23ссв188983 0.0 1013344
09:00+28св246428 0.0 1016843
12:00+36ссв123591 0.0 10132348
15:00+32сз114688 0.1 1011605
18:00+29ссз1456100 0.2 1011104
21:00+24ссв278035 0.3 1014170
30 июля, пт
пт3000:00+23с278730 0.0 1014199
03:00+22ссз259411 0.0 1012144
06:00+23св1490100 0.0 1014184
09:00+27в247819 0.8 1016515
12:00+36вюв153688 0.2 10132551
15:00+33ссв124195 0.3 1010920
18:00+27ююз125931 0.3 101258
21:00+25с286658 0.4 1014256
31 июля, сб
сб3100:00+24св117999 0.1 101579
03:00+22с129598 0.6 101452
06:00+21ююв17977 0.6 1016177
09:00+28вюв384011 0.6 10181136
12:00+34юв48245 0.0 10152372
15:00+37юв3717100 0.0 10113657
18:00+32юв1326100 0.0 1011107
21:00+31ююв5113391 0.0 10151403
1 августа, вс
вс100:00+26ююв412534 0.0 1016987
03:00+23ююв311696 0.0 1016933
06:00+23юв311734 0.0 1018963
09:00+28юв595015 0.0 10191532
12:00+33юв583255 0.0 10172772
15:00+33вюв46325 0.0 10142073
18:00+28вюв25415 0.0 1014116
21:00+28вюв412434 0.0 1017929